Wind_Speed
55 51 51 53 55 57 58 56 56 58 61 63 63 62 61 60 58 54 50 47 47 50 52 52 51 50 47 44 41 41 40 38 37 36 34 34 34 35 36 36 33 29 26 26 27 27 28 28 28 29 30 31 32 33 33 34 34 33 34 35 35 34 34 33 33 33 34 35 35 36 37 39 40 40 41 41 40 39 38 38 37 37 36 35 33
49 45 45 51 56 59 60 60 59 60 62 62 63 62 60 58 57 54 51 49 49 51 52 52 52 50 48 46 45 44 42 41 40 38 37 36 36 36 37 37 34 30 26 25 26 26 27 27 28 30 32 33 33 33 33 34 34 35 35 36 36 36 37 37 37 36 37 36 36 37 38 39 39 39 40 40 40 39 39 38 38 38 37 36 35
40 37 34 41 51 57 61 62 62 62 63 63 63 63 61 59 57 57 56 54 53 53 53 52 51 49 48 46 45 44 43 42 40 39 37 36 36 36 37 37 34 30 27 27 27 27 28 28 29 30 30 31 32 32 32 32 33 34 35 36 37 38 39 41 41 40 39 38 37 37 38 38 38 39 39 40 40 40 39 38 38 37 37 36 36
37 34 32 37 45 51 56 61 62 62 62 63 63 63 62 61 60 59 60 59 58 56 54 52 50 49 48 47 47 46 44 42 40 38 37 36 36 36 35 35 33 31 30 29 29 29 29 30 31 30 28 29 29 29 29 29 30 32 35 37 39 41 42 44 44 43 41 40 39 38 39 39 39 39 39 40 41 41 39 38 38 38 38 38 38
36 33 33 37 39 43 49 54 57 59 59 58 59 60 61 62 61 61 61 61 59 57 55 52 50 49 49 48 47 46 44 42 40 38 37 36 36 37 36 34 33 32 32 31 31 32 32 32 33 31 28 28 28 28 30 32 35 37 39 41 42 44 45 46 46 45 43 42 41 41 41 41 40 40 40 40 40 40 40 40 40 41 41 41 41
31 30 32 35 35 39 45 48 50 53 55 55 55 57 59 60 59 59 60 60 58 57 55 54 52 51 50 49 48 46 44 43 41 40 38 37 37 37 36 35 33 33 34 34 33 34 34 35 35 33 31 31 31 33 35 38 41 43 43 43 43 43 44 45 45 45 44 44 43 44 44 43 41 40 39 39 40 41 41 42 43 44 44 44 45
28 29 34 38 38 40 43 45 46 47 49 52 54 56 58 59 60 60 60 60 59 57 56 54 54 53 53 51 50 48 47 45 44 42 41 40 39 37 36 34 34 34 35 35 36 36 37 37 37 37 35 35 37 39 40 42 43 44 45 44 44 43 43 43 44 44 44 45 45 45 45 45 43 41 40 42 43 43 43 44 46 47 47 47 48
30 32 38 41 41 40 39 41 44 45 45 47 52 55 56 56 57 58 59 59 59 57 56 54 54 54 53 52 51 49 48 47 46 43 42 40 39 37 36 35 35 36 36 37 38 38 39 39 39 39 38 39 41 42 43 44 44 45 44 44 45 46 45 45 45 45 46 47 47 47 46 45 44 44 44 45 47 48 48 48 49 50 50 51 52
33 36 40 43 44 43 41 41 43 44 43 44 48 51 51 51 52 52 52 53 54 55 55 55 55 54 53 52 50 48 48 47 45 43 41 40 39 38 38 38 38 38 38 39 39 39 40 39 39 40 41 43 44 45 45 45 45 45 45 46 46 47 47 48 48 47 48 49 49 48 47 45 45 47 49 49 50 52 53 53 53 53 54 54 55
35 36 37 38 41 44 44 44 45 46 46 46 48 49 49 49 49 49 48 48 49 51 53 54 55 55 53 51 49 48 48 46 44 43 42 42 41 41 40 40 40 40 40 39 39 39 40 40 41 43 45 46 47 46 46 45 45 45 47 47 47 48 49 49 49 49 49 49 48 48 48 49 50 51 51 53 54 56 57 57 57 57 57 58 58
40 38 36 35 37 40 43 44 45 47 48 48 47 48 48 48 47 46 46 46 46 47 48 49 50 50 49 48 48 49 48 47 45 44 44 43 43 42 42 42 41 41 40 39 39 41 42 44 45 46 47 47 46 45 45 45 46 48 49 48 48 48 48 47 48 48 48 49 49 50 51 53 55 55 56 56 58 59 60 61 60 60 61 60 61
44 42 41 40 39 41 45 46 46 48 49 49 47 46 46 46 46 45 45 45 45 46 46 46 46 46 46 47 48 48 47 46 45 45 44 44 44 42 41 41 41 41 42 42 44 45 46 47 47 46 46 46 46 46 47 48 49 48 48 47 46 46 47 47 48 49 50 51 53 54 55 57 58 59 60 60 61 62 63 65 65 64 64 63 63
44 45 45 44 42 43 47 49 49 50 51 51 50 48 47 47 47 48 47 46 46 47 49 49 49 49 49 49 50 49 48 47 47 46 45 44 43 42 41 41 42 43 45 47 47 47 47 46 46 46 47 48 48 49 49 49 48 47 48 47 48 49 50 51 52 54 55 55 56 56 58 59 60 61 62 63 63 64 65 66 67 67 67 67 68
43 45 46 46 45 44 46 49 50 51 52 51 52 51 50 50 50 51 51 51 50 49 50 52 53 53 52 52 52 51 50 50 48 47 46 45 44 44 44 45 47 49 50 49 48 47 47 47 48 49 50 51 50 49 48 48 48 49 50 50 50 53 54 55 55 56 56 56 57 59 60 61 62 63 63 63 65 66 67 67 67 67 69 71 74
43 43 44 45 47 47 47 47 48 51 52 53 53 53 53 53 53 53 54 54 53 53 53 54 53 53 52 52 51 51 51 50 49 48 47 48 49 48 49 51 53 53 51 49 48 49 49 50 50 52 52 51 49 48 48 49 50 51 52 52 53 55 56 57 56 55 56 57 59 61 63 63 63 64 64 65 66 66 67 68 70 73 77 81 85
46 45 44 44 46 47 47 46 47 49 52 55 56 56 56 56 56 56 55 55 55 55 56 56 55 54 54 53 52 51 50 50 50 51 52 53 53 53 53 54 53 52 51 51 51 51 50 50 50 51 52 51 50 49 50 52 53 53 54 55 56 57 58 56 55 54 56 58 59 61 63 63 63 65 67 70 71 73 76 79 83 87 90 91 92
51 48 47 46 47 49 49 48 48 49 52 55 56 57 58 58 58 58 57 57 57 57 57 57 57 57 57 56 55 54 53 53 53 54 55 55 54 53 53 53 52 51 51 51 50 49 49 49 50 52 53 53 53 52 53 54 54 54 55 55 56 58 58 57 57 58 60 62 64 65 67 68 71 75 79 82 85 88 91 93 95 96 95 94 94
55 53 51 50 50 51 52 52 52 52 53 54 55 57 59 60 61 61 60 60 60 59 59 58 58 59 58 58 57 57 56 55 55 55 54 53 53 52 52 52 51 50 50 49 49 50 50 51 52 52 53 54 55 55 55 56 57 58 59 59 59 62 64 65 67 70 72 75 77 79 80 83 86 89 92 94 96 97 97 97 97 97 96 95 95
60 58 56 55 54 54 55 57 57 58 58 57 56 56 58 59 61 62 62 62 61 61 60 60 60 60 59 58 57 57 56 55 54 52 51 51 50 50 50 50 50 50 50 51 51 51 52 54 54 55 56 57 59 60 61 63 64 66 67 68 69 72 75 78 80 82 84 86 87 89 91 92 94 95 96 98 98 99 99 98 98 98 97 96 96
63 62 61 60 59 58 59 60 61 62 62 60 59 58 57 57 57 57 57 58 58 59 59 60 60 59 58 58 57 56 54 53 51 50 50 50 50 50 50 51 51 51 52 53 53 54 56 58 59 60 61 63 66 68 70 72 74 75 77 78 79 81 83 85 87 88 89 91 92 93 95 96 97 97 98 99 99 100 100 100 100 99 99 98 98
65 65 64 63 62 61 61 62 62 63 64 63 63 62 61 60 59 58 58 58 59 59 60 60 60 59 58 57 56 55 53 52 53 54 55 56 55 55 56 56 56 56 57 58 59 60 63 66 67 69 71 72 75 77 79 80 82 82 83 84 85 86 87 89 91 92 94 95 95 96 97 98 98 98 98 98 98 99 100 101 102 101 100 98 97
66 66 65 64 64 63 63 62 62 62 63 63 63 63 63 64 64 63 63 63 62 62 62 62 61 61 60 60 60 60 60 61 62 63 63 64 64 65 65 66 67 68 69 70 71 72 74 76 78 80 81 82 82 83 84 85 86 87 87 88 89 91 93 95 97 97 97 98 98 98 98 98 98 98 98 98 99 99 100 101 101 99 97 96 96
68 68 68 67 66 65 65 65 64 63 63 63 63 63 63 64 65 65 65 65 64 64 64 64 64 64 65 66 67 68 69 70 71 71 72 73 73 73 74 76 77 78 78 79 80 81 82 83 84 84 85 86 86 87 88 89 90 91 92 93 95 97 98 99 100 100 100 99 99 98 98 98 98 98 98 97 96 95 95 96 97 98 98 99 100
73 70 70 69 68 67 67 67 67 67 67 67 67 67 67 67 67 66 66 66 66 66 66 66 66 67 69 70 71 72 73 74 75 77 78 78 78 79 80 81 82 82 82 83 84 85 85 86 86 87 88 88 89 90 91 92 94 95 97 98 99 100 100 100 100 100 99 98 97 96 96 96 95 95 94 94 93 93 94 95 97 99 102 104 105
77 75 73 72 72 71 70 70 70 70 71 71 72 72 72 72 71 71 70 69 69 69 69 69 69 70 71 72 73 73 74 75 78 80 81 81 82 83 83 84 85 85 85 86 87 87 88 88 89 89 90 90 91 93 94 96 98 99 100 100 100 99 98 97 96 95 95 94 93 93 94 94 94 94 95 96 97 98 99 100 101 103 105 106 107
80 79 78 77 76 75 75 74 74 74 74 75 75 75 75 76 76 76 76 75 75 75 75 75 75 76 77 77 78 78 79 81 84 86 85 85 86 87 87 89 90 90 90 89 90 91 91 92 92 93 93 94 96 97 98 99 98 98 97 96 95 93 93 92 92 92 93 93 94 95 96 97 98 99 100 102 103 104 105 106 107 108 109 109 110
81 82 82 81 81 80 80 80 80 79 79 79 79 79 79 80 80 80 80 80 80 81 81 81 82 82 83 84 84 84 85 87 90 90 90 90 90 91 92 93 93 93 93 93 93 94 95 95 96 96 97 98 98 98 97 95 94 93 92 91 91 91 91 92 93 94 96 97 98 100 101 102 104 105 106 107 109 109 109 110 112 112 112 111 111
80 82 83 84 84 84 84 84 84 84 84 84 84 84 84 84 85 85 85 85 85 85 86 86 86 87 88 88 88 88 90 91 92 94 94 95 94 94 94 94 95 95 95 96 97 97 98 99 99 99 99 98 96 93 91 90 90 90 90 91 92 93 94 95 96 98 100 102 103 105 106 107 108 109 110 111 112 112 112 111 112 112 112 111 111
82 82 83 84 85 86 87 87 87 88 88 88 88 88 88 89 89 89 90 90 90 90 90 90 91 91 92 92 92 92 93 94 95 96 96 96 96 96 96 97 97 98 99 99 100 100 100 99 98 97 95 93 91 89 89 89 90 92 93 95 96 98 99 100 102 104 105 107 108 109 110 111 111 111 111 112 113 113 112 112 112 111 111 110 109
84 85 85 86 86 87 88 88 89 90 90 91 91 91 91 92 92 93 93 93 93 93 93 93 93 94 94 94 95 95 95 96 96 97 97 97 97 98 98 99 100 100 100 100 99 97 96 95 94 93 92 91 91 92 92 94 95 97 99 101 102 103 104 105 106 107 108 110 110 111 111 111 111 111 112 112 112 112 112 111 110 110 109 107 106
85 85 86 86 87 88 88 89 90 91 91 92 93 93 93 93 94 94 94 94 94 94 94 94 95 95 96 96 96 97 97 97 97 98 98 99 100 100 100 100 100 99 98 97 96 95 94 94 93 94 94 94 95 96 98 99 100 102 103 105 106 107 108 109 109 109 110 111 111 111 110 111 111 111 111 111 110 110 109 108 107 106 104 103 101
89 88 88 88 88 89 89 90 90 91 91 92 93 93 94 94 94 95 95 95 95 95 96 96 96 97 97 97 97 97 98 98 99 99 100 100 99 99 99 98 97 96 95 95 95 95 95 95 96 96 97 98 99 100 102 103 105 106 108 109 110 110 111 111 112 112 113 113 112 112 112 112 111 111 110 109 107 106 105 104 102 100 99 97 95
93 94 94 93 92 92 91 91 91 91 91 92 92 93 94 94 95 95 96 96 96 97 97 97 98 98 98 98 99 99 99 100 100 100 100 99 97 96 96 95 94 94 94 95 95 96 97 98 99 100 102 103 104 106 107 108 109 110 111 112 112 112 111 111 111 112 112 112 111 110 110 109 108 107 105 104 102 101 100 98 96 94 92 89 87
94 95 96 97 97 97 96 96 95 95 95 95 96 96 96 97 97 98 98 99 99 99 100 100 100 100 100 101 101 101 101 100 100 99 98 97 96 95 95 95 95 96 97 98 99 100 101 103 104 105 107 108 109 110 110 111 111 112 112 112 112 111 110 110 109 110 111 109 108 107 105 104 102 101 100 98 96 94 93 91 88 86 83 81 79
88 90 92 94 96 97 98 99 99 99 99 100 100 100 101 101 101 101 102 102 102 102 102 102 102 102 101 100 99 99 98 98 97 96 95 95 95 96 97 97 98 100 101 102 103 104 106 107 108 109 110 111 111 112 112 112 112 112 112 112 111 111 110 109 108 108 107 105 103 102 99 97 95 93 91 89 88 86 84 82 80 78 77 75 74
81 83 84 86 88 90 92 94 95 96 97 98 99 99 100 100 100 100 101 101 101 101 101 101 100 100 99 98 97 97 96 96 96 96 96 97 98 99 100 101 102 103 105 106 107 108 109 109 110 110 111 112 112 113 113 113 112 112 112 111 111 110 108 106 105 103 101 99 97 95 92 89 87 85 83 81 79 78 77 76 75 74 72 71 70
81 81 81 82 83 84 85 86 88 89 91 92 93 94 94 95 96 96 97 97 97 97 98 98 97 97 97 97 97 97 97 97 97 98 99 100 101 102 103 104 105 106 107 107 108 109 109 110 111 112 112 112 113 113 112 112 112 111 110 109 108 106 104 101 99 97 94 92 89 86 84 81 80 78 77 75 74 73 72 72 71 70 68 67 66
84 84 84 84 84 84 85 85 86 87 87 88 89 90 91 92 93 94 94 95 95 95 96 96 97 97 97 97 97 98 98 99 99 100 101 102 103 104 104 105 106 107 107 108 109 109 110 111 112 112 112 112 112 111 111 110 109 107 106 104 102 100 97 95 91 88 86 83 81 79 77 75 74 73 72 71 69 68 68 68 68 66 65 64 63
85 86 86 87 87 87 88 88 88 89 89 90 91 91 92 93 93 94 95 95 96 96 96 97 97 98 98 99 99 99 100 100 101 102 102 103 104 105 106 106 107 108 109 109 110 110 111 111 111 111 110 110 109 108 106 105 104 102 101 98 96 93 89 86 83 81 78 77 75 73 72 70 69 69 68 67 66 65 65 65 64 63 61 61 60
87 87 88 88 89 89 90 90 91 91 92 92 93 93 94 94 95 95 96 96 97 97 97 97 98 98 99 99 100 100 101 102 103 103 104 105 106 106 107 108 108 109 109 109 110 110 110 109 109 108 107 106 104 103 102 100 99 96 94 91 88 85 82 80 78 76 74 73 71 70 69 68 67 66 65 65 64 63 62 62 61 60 58 57 56
89 90 90 91 91 91 92 92 92 93 93 94 94 95 95 96 96 97 97 97 97 98 98 98 99 99 100 101 101 102 103 104 105 105 106 107 107 108 108 108 108 108 108 108 108 107 107 106 105 104 103 102 100 99 96 93 90 87 85 82 80 78 76 75 73 72 71 70 69 68 67 66 65 64 63 62 62 61 60 59 58 56 55 54 53
92 92 93 93 93 94 94 94 94 95 95 96 96 97 97 97 98 98 98 99 99 100 100 101 101 102 102 103 104 104 105 106 106 107 107 107 108 108 108 108 107 107 106 106 105 105 104 103 102 101 99 97 94 90 87 84 81 79 77 76 74 73 71 70 70 69 69 68 67 66 65 64 63 62 60 59 59 58 57 56 54 53 52 51 49
95 95 96 96 96 96 97 97 97 97 98 98 98 99 99 100 100 100 101 101 101 102 102 103 103 104 104 105 105 106 106 107 107 107 107 107 107 107 106 106 105 105 104 104 103 102 101 99 97 94 91 87 84 81 78 77 75 74 73 72 70 69 68 67 66 66 65 65 64 63 62 61 60 58 57 56 55 55 53 52 50 49 48 48 47
97 98 98 98 99 99 99 100 100 100 100 101 101 101 101 102 102 102 103 103 104 104 104 105 105 105 106 106 106 106 106 106 106 106 106 106 105 105 105 104 104 103 102 101 99 97 94 91 88 84 81 78 76 74 73 72 70 70 70 69 68 68 66 65 64 63 63 62 61 60 59 58 56 55 54 53 52 51 50 49 47 46 46 45 45
99 99 100 100 101 101 102 102 102 102 102 103 103 103 103 103 104 104 104 104 105 105 105 105 105 106 106 106 106 106 106 105 105 105 104 104 103 102 101 100 99 97 95 93 90 87 84 81 78 76 73 72 71 70 69 68 68 67 67 66 66 65 64 63 62 61 60 59 58 57 56 55 53 52 51 51 50 49 48 47 45 45 44 44 44
97 98 98 99 100 101 102 102 103 103 103 104 104 104 104 104 104 105 105 105 104 104 105 105 104 104 104 104 104 103 103 102 102 101 100 99 98 96 94 92 90 88 86 83 81 78 76 74 72 70 68 67 67 66 66 66 65 65 64 63 62 61 60 60 60 59 58 58 57 56 54 53 51 49 48 48 47 46 46 45 44 44 43 42 43
93 94 95 95 96 97 98 99 100 100 101 101 102 102 102 102 102 102 102 102 102 101 101 101 101 101 100 100 99 98 98 96 95 94 92 91 89 87 85 83 81 79 77 76 74 72 71 70 68 66 64 64 64 64 64 64 63 62 62 61 60 58 57 56 55 55 55 54 53 52 51 49 48 46 45 44 44 44 43 43 43 42 42 42 41
90 90 91 92 92 93 94 95 95 96 97 97 97 97 97 97 97 97 97 97 96 96 96 96 95 95 94 93 92 91 89 88 87 85 84 82 80 79 77 76 74 73 72 70 69 68 67 66 64 63 62 62 62 62 62 61 60 60 59 59 58 57 55 53 52 52 51 50 49 48 48 46 45 44 43 42 41 41 41 41 41 41 41 41 40
84 85 86 87 88 89 89 90 91 91 92 92 92 92 92 92 91 91 91 90 90 90 89 89 88 87 86 85 84 83 81 80 79 78 76 75 74 73 71 70 69 68 67 66 65 65 64 63 61 61 61 60 60 59 59 58 58 58 58 57 56 55 53 51 50 49 49 49 48 47 46 45 44 43 42 42 41 40 40 40 40 39 39 39 39
76 78 80 81 82 83 83 84 85 85 86 86 86 86 85 85 85 85 84 84 84 83 82 82 81 80 79 78 77 76 75 74 73 72 71 70 69 68 67 66 65 65 64 63 62 62 61 61 60 59 59 58 58 57 56 56 56 56 56 55 54 53 52 51 49 48 48 49 48 47 46 45 44 43 42 41 41 40 40 40 39 39 38 37 37
69 71 73 74 75 76 77 77 78 79 79 79 79 79 79 79 79 79 78 78 77 77 76 76 75 74 73 72 71 70 69 69 68 67 66 66 65 64 63 63 62 62 61 61 60 60 60 59 58 58 57 57 56 55 54 54 55 55 54 53 52 51 50 50 50 49 48 47 47 47 46 44 43 42 41 40 40 40 39 39 39 38 37 36 35
Wind_Direction
235 240 243 244 244 243 243 245 245 244 244 245 246 249 251 253 254 255 255 256 254 254 256 259 264 269 273 274 276 278 281 284 287 288 290 291 292 294 296 297 297 296 292 286 280 277 276 278 280 281 279 277 276 276 277 277 278 279 278 275 272 269 271 275 281 286 288 290 288 284 280 280 282 286 292 295 295 295 295 293 290 288 287 288 289
232 238 245 247 246 245 245 247 247 245 244 245 246 248 250 252 252 253 254 255 255 255 257 260 264 268 271 272 274 277 279 283 286 288 290 291 294 296 298 299 298 296 293 287 282 281 282 285 287 287 282 278 276 276 277 276 277 279 277 275 271 269 271 275 278 284 287 288 287 284 280 279 280 284 288 291 292 293 295 293 290 288 287 287 287
232 231 237 244 246 246 246 249 250 248 246 246 247 249 251 253 254 255 255 255 256 257 259 261 264 267 270 272 274 277 280 283 286 288 290 292 294 296 298 298 297 294 291 288 285 284 285 288 291 292 288 282 278 277 278 278 278 278 276 274 270 269 272 275 278 282 286 286 285 283 281 279 279 281 284 287 288 290 292 292 290 289 288 288 290
234 228 229 238 246 248 249 251 251 249 248 249 250 252 253 255 257 258 258 257 258 259 260 262 265 267 270 272 275 278 281 284 286 288 289 291 292 294 295 295 294 291 289 288 286 285 286 289 293 296 293 286 280 277 277 278 279 279 277 274 272 271 273 276 279 281 283 283 282 282 280 279 278 280 282 285 286 287 289 291 291 290 291 292 294
231 227 231 240 246 248 250 252 250 249 250 251 252 253 254 256 256 257 257 257 258 260 261 263 265 268 270 273 276 279 281 283 285 286 287 288 290 292 292 290 288 286 286 285 284 284 285 288 291 294 292 285 280 276 275 277 279 279 278 276 274 273 274 276 278 280 280 279 278 280 281 279 278 281 283 284 286 287 289 290 292 293 294 295 298
224 221 229 235 237 240 246 251 251 249 249 249 250 251 251 253 254 254 255 256 257 259 262 264 266 268 271 273 276 279 281 283 284 285 286 286 286 288 289 287 284 283 283 283 283 283 283 285 287 289 287 282 279 277 278 280 281 281 281 280 279 278 277 277 278 278 278 277 277 279 280 280 280 283 285 288 290 290 291 292 294 295 296 298 299
217 215 224 228 230 237 244 249 247 243 244 245 245 246 248 250 252 253 254 255 257 259 261 263 265 267 270 272 275 278 280 282 283 284 285 286 285 284 284 283 281 281 281 281 281 281 282 283 283 284 283 281 280 281 282 283 282 282 282 283 283 283 282 280 279 278 278 278 279 280 280 281 283 284 289 294 295 296 297 297 296 297 298 299 299
212 214 224 229 232 237 241 244 241 236 238 241 242 244 247 250 253 255 255 255 257 259 261 264 266 269 271 274 276 277 278 280 281 283 284 284 283 282 280 279 280 280 280 280 279 280 280 280 280 281 282 282 282 283 283 283 282 282 283 284 285 284 283 281 280 278 278 278 279 280 281 284 287 290 295 298 299 300 303 302 300 299 299 299 299
209 216 225 230 232 234 235 237 236 234 235 238 242 246 250 253 255 257 257 258 259 261 264 266 269 271 273 275 276 276 277 278 280 281 281 280 279 279 278 279 279 279 279 279 278 278 278 278 279 280 280 281 281 282 282 282 283 284 285 285 284 283 281 281 280 278 278 278 278 279 282 288 294 298 299 300 301 302 303 303 302 301 300 299 298
206 213 221 227 231 233 233 235 236 237 239 242 245 249 252 255 257 258 259 260 261 262 264 266 268 270 272 273 274 274 275 277 278 278 278 278 278 277 278 278 277 277 278 278 277 276 277 277 278 279 280 280 281 281 282 283 284 286 286 285 283 282 281 280 279 278 277 278 279 281 287 294 300 303 302 300 300 302 302 301 301 300 300 299 298
210 212 215 221 227 229 231 233 237 241 243 244 247 250 251 254 257 258 259 260 261 262 264 266 267 268 269 270 271 272 274 276 276 277 277 277 277 277 277 276 276 277 278 277 277 277 278 279 279 280 281 281 282 283 284 286 288 289 288 285 282 281 281 280 281 280 280 283 287 291 297 300 302 303 302 300 300 301 300 300 299 298 298 297 296
216 217 217 220 225 228 230 232 236 239 240 242 245 248 250 252 254 256 257 258 259 261 263 265 267 267 268 269 270 272 274 275 276 277 277 276 277 277 276 276 277 279 280 280 281 281 281 281 281 282 282 283 284 286 288 291 292 291 289 286 285 286 287 287 288 290 292 295 297 299 301 301 300 301 301 300 300 299 298 299 299 298 297 296 294
217 219 220 221 224 229 232 233 235 237 238 240 243 246 249 251 252 253 255 256 258 259 261 263 265 266 267 270 272 274 275 276 276 276 276 275 275 275 275 277 280 281 282 283 284 283 283 283 284 284 285 286 288 290 293 295 294 295 295 294 294 295 294 294 296 298 300 300 299 299 299 298 297 298 298 298 298 297 296 297 297 297 295 294 294
218 221 222 222 223 227 233 235 237 239 240 241 244 246 247 249 251 253 254 255 256 257 259 261 262 264 267 270 272 274 276 277 277 276 275 273 272 273 275 277 280 281 282 282 282 282 284 285 286 287 288 290 292 293 296 297 296 295 296 296 295 295 295 295 297 298 297 296 295 296 297 296 296 295 295 294 294 294 294 294 294 293 293 293 293
218 222 224 224 225 228 234 237 240 242 243 243 244 246 248 249 251 254 255 256 257 258 259 260 261 264 266 269 272 274 276 276 275 273 272 271 271 272 274 276 278 279 280 281 281 283 285 287 289 291 291 292 295 295 295 295 293 293 293 295 295 294 294 295 296 295 293 293 293 294 295 295 294 292 291 291 291 291 292 291 291 290 290 291 292
219 222 225 227 228 231 234 237 239 242 244 244 245 247 249 249 251 254 256 258 259 259 259 260 261 264 266 269 273 274 274 273 272 271 271 272 273 274 275 276 278 280 282 283 284 286 288 290 290 291 292 292 293 292 291 291 292 293 294 296 295 294 294 295 295 293 292 292 292 292 292 291 290 289 289 289 289 289 289 290 289 289 290 291 291
219 222 225 227 230 232 234 235 237 240 243 245 246 248 250 251 252 253 255 257 258 259 261 263 265 268 270 272 274 275 274 274 274 275 275 276 277 278 279 281 282 283 285 286 286 287 288 288 287 288 289 290 289 289 289 291 292 292 294 295 295 293 293 294 292 291 290 290 289 289 288 288 287 287 288 288 288 288 289 290 290 290 291 291 291
219 221 224 227 231 233 235 235 236 238 241 244 246 248 251 252 253 254 256 258 260 261 263 266 269 272 273 275 275 276 276 276 276 277 277 279 281 282 283 285 285 286 286 286 285 285 286 285 285 285 286 286 287 288 289 289 289 290 291 292 291 289 289 288 288 287 287 287 287 287 287 287 287 287 288 288 288 289 290 290 290 291 292 292 292
221 223 225 227 230 233 235 236 236 237 239 242 244 247 251 254 256 257 259 260 262 264 266 269 271 273 274 274 274 274 275 275 275 276 278 281 283 284 285 285 285 283 283 283 283 284 283 282 281 281 282 283 284 285 285 285 286 286 287 287 286 286 286 286 286 287 287 288 288 288 288 288 288 288 289 289 290 290 291 291 291 292 292 292 293
223 224 226 227 229 232 235 237 238 239 241 242 245 247 250 253 256 258 260 261 263 265 268 270 271 272 272 272 272 272 272 273 273 275 277 279 280 280 280 280 279 278 278 279 279 279 279 278 278 278 279 280 281 282 283 284 284 285 285 285 285 285 285 286 287 288 288 288 289 289 289 289 289 290 290 290 291 291 291 292 292 292 292 293 293
224 225 227 229 230 232 235 238 241 243 244 245 247 248 249 250 251 253 256 258 261 264 266 267 267 267 268 268 269 268 268 269 270 272 275 276 277 277 276 275 275 275 275 275 275 276 276 277 277 278 279 280 281 283 284 284 285 285 286 286 286 286 287 288 289 289 289 289 289 289 290 290 290 290 290 290 290 290 291 291 291 291 292 292 292
225 226 227 229 231 233 235 237 240 242 245 246 247 248 249 249 249 250 252 255 258 260 262 263 262 262 262 263 263 264 264 266 267 269 271 272 273 273 274 274 275 276 277 277 277 278 278 279 280 281 282 283 284 285 285 286 286 286 287 287 288 289 289 290 290 290 290 290 289 289 289 289 289 289 288 288 289 289 289 290 291 292 293 293 293
226 227 228 230 231 234 235 237 238 240 242 243 245 246 247 248 249 250 251 253 255 257 258 258 259 259 260 260 261 262 264 265 266 267 268 269 270 272 273 275 277 278 278 279 280 280 281 281 282 283 284 285 286 286 287 287 287 288 289 289 290 290 291 291 290 290 289 289 289 288 288 288 287 287 287 287 288 288 289 291 292 294 294 294 294
227 228 229 231 232 234 236 238 239 240 241 241 243 244 245 246 248 249 250 252 253 254 255 255 255 256 258 259 261 263 264 266 267 268 269 270 272 274 275 276 277 278 279 280 281 281 282 282 283 284 285 286 286 286 287 287 288 288 289 290 290 290 290 289 289 288 288 288 289 288 288 287 287 288 288 289 290 291 291 292 292 293 293 294 294
228 229 230 231 233 234 235 237 239 241 242 243 244 245 246 247 248 248 249 250 251 252 253 254 254 255 257 258 260 262 264 266 267 268 270 272 274 275 276 277 278 279 280 281 281 282 282 283 283 284 284 285 286 286 287 287 288 288 289 289 288 288 288 288 288 289 289 289 289 289 289 289 290 290 291 291 291 292 292 293 293 293 293 294 295
231 231 232 232 234 235 236 238 239 241 243 245 246 247 248 249 250 250 250 251 252 253 254 255 256 257 258 259 261 262 264 266 268 270 271 273 275 276 277 278 279 280 281 281 281 282 283 283 284 285 286 286 287 287 287 288 288 288 287 287 287 287 288 288 289 289 290 290 290 290 290 291 291 292 292 292 292 293 293 294 294 293 294 294 294
234 234 235 235 236 237 238 240 241 243 244 245 247 248 249 251 252 253 253 254 254 255 256 257 258 259 261 262 263 265 266 268 270 272 273 274 276 277 278 279 279 280 281 282 282 283 284 285 286 286 287 287 287 287 287 287 287 287 287 288 288 289 290 290 290 290 290 290 290 290 290 291 291 291 291 292 292 292 293 293 292 293 293 293 293
236 236 237 238 239 240 241 242 243 245 246 248 249 250 251 252 253 254 255 256 257 258 258 259 260 261 263 264 266 267 269 270 272 274 275 276 277 278 279 279 280 281 282 283 284 285 286 286 287 287 288 288 288 288 288 288 288 288 289 289 289 289 289 289 289 288 288 288 289 289 289 289 289 290 290 290 291 291 292 292 292 292 292 292 292
237 238 239 240 241 242 243 244 245 247 248 249 251 252 253 254 255 256 257 258 259 260 261 262 263 264 265 266 268 269 270 272 273 275 276 277 278 279 280 281 282 283 284 285 286 287 287 288 288 288 289 289 288 288 287 286 286 287 287 287 286 286 286 286 286 286 287 287 287 287 288 288 289 290 290 291 291 292 292 292 292 292 292 291 291
239 240 241 242 243 244 245 246 247 248 249 251 252 253 254 255 256 258 259 260 261 262 263 264 265 266 267 268 269 270 271 273 274 275 276 277 279 280 281 282 283 284 285 286 287 287 287 287 286 286 286 285 284 284 283 283 283 284 284 285 285 286 286 286 286 287 287 287 288 288 289 290 290 291 291 292 292 292 292 292 292 291 291 290 290
240 241 242 243 244 245 246 247 248 249 250 252 253 254 255 256 257 258 259 261 262 263 264 265 266 267 268 269 271 272 273 274 275 276 277 279 280 281 282 283 283 284 285 285 285 285 284 284 283 283 283 283 283 283 283 283 284 284 285 285 286 287 287 288 288 289 289 290 290 291 291 291 292 292 292 292 292 292 291 291 290 290 289 289 289
241 242 243 244 245 246 247 248 250 251 252 254 255 256 257 258 259 260 261 262 264 265 266 267 268 269 270 272 273 274 275 276 277 278 279 280 281 281 282 283 283 283 283 283 283 283 283 283 283 283 282 283 283 284 284 285 285 286 286 287 288 289 289 290 290 291 291 291 292 292 292 292 292 292 292 291 291 291 290 290 289 289 288 288 288
243 244 245 245 246 247 248 249 251 252 253 254 256 257 258 259 260 261 262 264 265 266 267 268 269 270 271 272 273 274 275 276 277 278 279 279 280 280 280 281 281 281 281 281 281 281 281 281 282 282 282 283 284 284 285 286 286 287 288 288 289 290 290 290 291 291 291 292 292 292 292 292 292 291 291 291 290 290 289 289 288 288 288 287 287
246 247 247 248 248 249 250 251 252 253 254 255 256 257 258 259 260 262 263 264 265 266 267 268 269 270 271 272 273 274 275 276 277 278 278 278 279 279 279 279 279 279 279 279 279 280 280 281 281 282 283 284 285 285 286 287 288 288 289 290 290 291 291 292 292 292 292 292 292 292 292 291 291 290 290 290 289 289 288 288 288 288 288 288 288
247 248 249 250 251 251 252 252 253 254 255 256 257 258 259 260 261 262 263 264 265 266 267 269 270 271 272 273 273 274 275 276 276 276 277 277 277 277 277 278 278 278 279 279 280 281 281 282 283 284 284 285 286 287 288 289 289 290 291 291 292 293 293 293 293 293 292 292 292 291 291 290 290 289 289 289 289 289 289 289 289 289 289 289 289
248 249 250 252 253 254 254 255 255 256 257 257 258 259 260 261 262 263 264 265 266 267 268 269 270 271 272 272 273 273 273 274 274 274 274 275 275 276 276 277 278 278 279 280 281 282 283 284 284 285 286 286 287 288 289 290 291 292 292 293 293 293 293 293 293 293 292 291 291 290 290 290 289 289 289 289 289 289 289 290 289 289 289 289 289
249 250 251 252 254 255 256 256 257 258 258 259 259 260 261 262 263 264 264 265 266 267 268 269 270 270 271 271 272 272 273 273 273 273 273 274 275 276 276 277 278 279 280 281 282 283 283 284 285 286 286 287 288 289 290 291 292 293 293 293 293 293 293 293 292 292 291 291 290 290 290 290 290 290 290 290 290 290 290 290 289 289 289 290 290
251 251 251 252 253 254 255 256 257 258 259 260 260 261 261 262 263 264 264 265 266 267 268 268 269 270 270 271 271 272 273 273 274 274 275 275 276 277 278 279 279 280 281 282 283 283 284 285 286 287 288 289 289 290 291 292 292 293 293 293 293 293 292 292 291 291 291 291 290 290 290 290 290 290 290 290 290 290 290 289 289 289 290 290 290
253 254 254 254 254 254 255 256 257 257 258 259 260 260 261 262 263 264 264 265 266 267 267 268 269 270 270 271 272 272 273 274 275 276 276 277 278 278 279 280 280 281 282 282 283 284 285 286 287 288 289 290 291 291 292 292 293 293 293 293 292 292 291 291 291 291 291 291 291 291 291 291 291 291 291 291 291 290 290 289 289 289 289 289 289
254 255 256 256 256 256 257 257 258 258 259 259 260 261 261 262 263 264 264 265 266 267 268 269 270 270 271 272 273 273 274 275 276 276 277 278 278 279 279 280 281 281 282 283 284 285 286 287 288 289 290 291 292 292 292 293 292 292 292 291 291 291 291 292 292 292 292 292 292 292 292 293 293 292 292 292 292 291 290 290 289 289 289 288 288
254 255 256 256 257 258 258 259 259 260 260 261 262 262 263 263 264 265 266 266 267 268 269 270 270 271 272 273 273 274 275 276 276 277 277 278 279 279 280 281 282 283 284 285 286 287 288 289 289 290 291 291 292 292 292 291 291 291 290 290 291 291 291 292 292 293 293 293 293 294 294 294 293 293 293 292 292 291 290 289 289 289 288 287 287
253 254 255 256 257 257 258 259 260 260 261 262 263 263 264 265 265 266 267 267 268 269 270 270 271 272 272 273 274 274 275 276 276 277 278 279 280 280 281 282 283 284 285 286 287 288 289 290 290 290 290 290 290 290 290 290 290 290 290 290 290 291 291 292 292 293 293 293 293 293 293 293 293 292 292 291 290 290 289 289 288 288 287 286 286
253 254 255 256 256 257 258 259 259 260 261 262 262 263 264 265 266 266 267 268 268 269 270 271 271 272 273 273 274 275 275 276 277 278 279 280 281 282 283 284 285 286 286 287 288 288 289 289 289 289 289 289 290 290 290 290 290 291 291 291 291 292 292 292 292 293 293 293 293 293 293 293 292 292 291 291 290 289 289 289 289 288 288 287 287
253 254 255 255 256 257 258 259 259 260 261 261 262 263 264 264 265 266 267 267 268 269 269 270 271 272 273 273 274 275 276 277 278 279 280 281 282 282 283 284 285 285 286 286 287 287 287 287 287 288 289 289 289 289 290 290 291 291 291 292 292 292 293 293 293 293 293 293 293 293 293 293 293 292 292 291 291 291 290 290 290 289 289 289 289
253 254 254 255 256 257 258 259 259 260 261 262 262 263 264 264 265 266 266 267 268 269 269 270 271 272 273 274 275 276 277 277 278 279 280 281 281 282 283 283 284 284 285 285 285 286 286 287 287 288 289 289 289 289 290 290 291 291 291 291 291 292 293 294 294 294 294 294 294 294 294 294 294 293 293 293 292 292 291 291 291 290 290 290 290
253 254 254 255 256 256 257 258 259 260 261 262 262 263 264 264 265 266 267 267 268 269 270 271 272 272 273 274 275 276 276 277 278 278 279 280 280 281 282 282 283 283 284 284 285 286 286 287 287 288 288 289 289 290 290 290 290 289 289 290 290 291 292 293 294 294 294 294 294 294 294 294 293 293 293 292 292 292 291 291 291 291 290 290 290
254 255 255 256 256 257 257 258 259 259 260 261 262 262 263 264 265 266 266 267 268 269 270 270 271 272 273 273 274 275 276 276 277 278 279 279 280 281 281 282 282 283 284 284 285 286 286 286 287 288 289 289 289 289 289 289 289 289 289 290 290 291 291 292 292 292 292 292 293 293 293 293 293 293 292 292 291 291 291 291 291 291 291 291 291
255 256 256 257 257 258 258 259 259 260 261 261 262 263 264 264 265 266 267 268 268 269 270 271 271 272 273 273 274 275 276 276 277 278 279 279 280 281 281 282 283 283 284 284 285 285 285 286 287 288 289 289 289 288 288 289 289 289 290 291 291 292 292 293 293 293 293 294 294 295 295 295 295 294 294 293 293 292 292 292 292 292 292 292 292
256 256 257 257 258 258 259 260 260 261 262 263 263 264 265 266 267 267 268 269 269 270 270 271 272 273 273 274 275 275 276 277 277 278 279 279 280 281 281 282 283 283 283 284 284 285 286 287 288 289 288 288 288 288 288 289 289 290 291 291 292 293 294 295 295 296 296 297 297 297 297 297 297 297 296 296 295 294 294 293 293 293 293 292 292
256 257 257 258 259 259 260 260 261 262 263 263 264 265 266 267 267 268 269 269 270 270 271 272 272 273 274 274 275 276 276 277 277 278 279 280 280 281 281 282 282 282 283 283 284 285 286 287 288 288 287 287 287 287 288 289 289 290 291 292 293 295 296 297 297 297 297 297 297 297 297 297 297 297 297 297 296 296 295 294 293 293 293 292 292
257 258 258 259 259 260 260 261 262 263 263 264 265 265 266 267 267 268 269 269 270 270 271 272 272 273 273 274 274 275 276 277 277 278 279 279 280 280 281 281 281 282 283 284 285 286 287 287 287 287 287 287 287 288 288 289 290 290 291 293 294 296 297 297 297 297 297 297 297 297 297 297 297 297 296 296 296 295 295 294 293 293 293 292 291
Height
10645 10652 10655 10656 10656 10656 10656 10656 10656 10657 10657 10657 10658 10658 10658 10659 10660 10661 10663 10664 10664 10664 10665 10666 10667 10667 10667 10667 10668 10669 10669 10670 10670 10669 10668 10668 10667 10667 10667 10666 10666 10666 10666 10666 10665 10664 10663 10663 10663 10663 10662 10661 10660 10660 10659 10658 10658 10657 10657 10657 10656 10655 10652 10651 10651 10650 10648 10647 10646 10645 10644 10643 10643 10642 10641 10640 10638 10637 10636 10634 10633 10632 10631 10630 10628
10644 10650 10652 10651 10650 10650 10649 10649 10651 10651 10651 10652 10652 10652 10653 10654 10654 10656 10657 10658 10658 10659 10660 10661 10662 10662 10662 10663 10663 10664 10665 10665 10665 10664 10664 10663 10662 10662 10662 10661 10661 10662 10662 10663 10662 10662 10661 10660 10660 10659 10658 10657 10656 10656 10654 10654 10653 10653 10653 10652 10652 10651 10648 10646 10646 10646 10644 10643 10642 10640 10640 10639 10638 10637 10636 10635 10634 10633 10631 10630 10629 10627 10626 10625 10624
10644 10646 10647 10644 10642 10642 10643 10642 10644 10645 10646 10646 10646 10647 10648 10648 10650 10651 10652 10652 10653 10654 10655 10656 10657 10657 10657 10658 10658 10659 10659 10660 10660 10659 10658 10658 10657 10657 10657 10657 10657 10657 10658 10658 10658 10658 10657 10656 10656 10655 10654 10652 10652 10651 10650 10649 10649 10648 10648 10648 10647 10646 10643 10641 10641 10641 10639 10638 10637 10636 10635 10634 10633 10632 10631 10630 10629 10628 10627 10625 10624 10623 10621 10620 10619
10641 10641 10642 10637 10634 10636 10636 10635 10637 10639 10640 10640 10641 10641 10642 10643 10645 10646 10646 10646 10648 10649 10650 10651 10652 10651 10651 10652 10653 10654 10654 10654 10654 10654 10653 10653 10653 10653 10653 10652 10652 10653 10653 10654 10654 10653 10653 10652 10650 10649 10649 10648 10647 10646 10646 10645 10644 10643 10643 10642 10642 10641 10639 10637 10635 10635 10635 10633 10631 10631 10630 10629 10628 10627 10626 10625 10624 10622 10621 10620 10619 10617 10616 10614 10613
10635 10636 10636 10633 10630 10630 10629 10628 10630 10632 10633 10634 10634 10635 10636 10637 10639 10640 10640 10641 10642 10643 10644 10645 10646 10646 10646 10647 10647 10648 10649 10649 10649 10649 10648 10648 10648 10648 10648 10648 10648 10648 10648 10649 10649 10648 10647 10646 10645 10644 10644 10643 10642 10642 10641 10640 10640 10639 10637 10637 10636 10635 10633 10632 10630 10629 10629 10628 10626 10625 10625 10625 10624 10622 10621 10620 10619 10617 10616 10615 10613 10611 10610 10608 10606
10630 10631 10632 10629 10625 10622 10621 10621 10622 10624 10625 10626 10627 10628 10629 10630 10632 10634 10635 10635 10636 10637 10638 10639 10640 10640 10640 10641 10642 10643 10643 10643 10643 10643 10644 10644 10643 10643 10644 10644 10644 10644 10643 10643 10644 10643 10642 10641 10639 10639 10639 10639 10638 10637 10637 10636 10634 10633 10632 10630 10629 10628 10627 10626 10625 10623 10622 10622 10622 10621 10620 10619 10618 10617 10615 10614 10613 10612 10610 10608 10606 10605 10603 10602 10599
10626 10627 10625 10620 10617 10615 10615 10616 10615 10615 10617 10619 10621 10622 10623 10625 10626 10627 10629 10630 10630 10631 10632 10633 10633 10634 10635 10636 10637 10637 10637 10637 10638 10638 10638 10639 10639 10639 10639 10640 10640 10639 10639 10638 10638 10637 10637 10636 10634 10634 10634 10633 10632 10632 10631 10630 10628 10627 10625 10624 10622 10622 10621 10620 10619 10618 10617 10616 10615 10615 10614 10613 10612 10611 10610 10608 10606 10604 10604 10602 10599 10598 10596 10595 10593
10621 10620 10616 10612 10611 10611 10612 10611 10610 10611 10614 10616 10617 10617 10619 10620 10620 10620 10622 10623 10624 10625 10626 10627 10627 10627 10629 10630 10631 10631 10631 10631 10632 10633 10633 10634 10634 10634 10635 10635 10635 10635 10634 10633 10633 10632 10631 10631 10629 10628 10628 10627 10625 10625 10624 10623 10621 10620 10619 10618 10616 10615 10615 10614 10613 10612 10611 10610 10609 10609 10608 10607 10605 10603 10603 10602 10599 10596 10596 10595 10593 10591 10589 10588 10586
10613 10611 10608 10607 10607 10606 10607 10607 10607 10609 10611 10612 10611 10612 10614 10614 10614 10614 10615 10617 10618 10618 10619 10620 10621 10622 10623 10624 10625 10625 10625 10626 10627 10628 10628 10629 10629 10629 10630 10630 10630 10629 10629 10628 10628 10627 10626 10625 10624 10623 10622 10620 10619 10618 10617 10616 10615 10614 10613 10612 10611 10609 10608 10607 10606 10606 10605 10604 10603 10603 10602 10600 10598 10596 10594 10594 10593 10590 10587 10586 10585 10584 10582 10581 10579
10603 10603 10603 10602 10600 10600 10602 10604 10605 10606 10606 10606 10606 10607 10608 10608 10607 10608 10609 10610 10611 10612 10613 10614 10616 10617 10618 10618 10618 10618 10619 10621 10622 10622 10623 10623 10624 10624 10624 10624 10624 10624 10623 10623 10622 10621 10620 10620 10619 10617 10616 10614 10612 10612 10611 10610 10609 10608 10607 10606 10605 10604 10602 10601 10600 10599 10598 10597 10597 10596 10595 10593 10591 10588 10586 10585 10584 10583 10580 10578 10576 10575 10574 10573 10571
10597 10598 10599 10597 10595 10596 10597 10600 10601 10601 10601 10601 10601 10602 10602 10602 10602 10602 10604 10604 10605 10607 10608 10609 10610 10612 10612 10612 10612 10612 10615 10616 10616 10617 10617 10618 10618 10619 10619 10618 10618 10618 10617 10617 10616 10615 10614 10613 10612 10611 10609 10607 10606 10605 10605 10604 10604 10602 10600 10599 10598 10597 10596 10594 10592 10591 10591 10590 10589 10588 10587 10584 10581 10580 10578 10576 10575 10574 10572 10571 10569 10567 10565 10564 10563
10591 10593 10594 10593 10592 10592 10592 10594 10596 10595 10595 10596 10597 10597 10597 10596 10597 10597 10597 10598 10600 10602 10603 10604 10605 10607 10607 10606 10606 10608 10610 10611 10611 10612 10612 10612 10612 10613 10613 10612 10612 10611 10610 10610 10609 10608 10607 10606 10605 10604 10602 10600 10599 10599 10599 10598 10597 10595 10593 10591 10591 10590 10589 10586 10584 10583 10583 10581 10580 10579 10577 10575 10573 10571 10569 10567 10566 10565 10563 10561 10560 10559 10557 10556 10555
10585 10586 10587 10588 10589 10587 10586 10588 10589 10589 10590 10591 10592 10592 10591 10591 10590 10591 10592 10593 10595 10597 10598 10599 10601 10601 10601 10601 10602 10603 10605 10605 10605 10606 10606 10606 10606 10607 10607 10606 10606 10605 10604 10603 10602 10601 10600 10600 10598 10597 10595 10594 10593 10593 10593 10592 10590 10588 10587 10585 10584 10582 10580 10578 10576 10575 10574 10573 10571 10570 10568 10566 10564 10562 10560 10558 10557 10555 10553 10552 10551 10550 10548 10547 10547
10577 10578 10580 10583 10585 10583 10582 10583 10584 10584 10585 10585 10585 10586 10586 10585 10584 10584 10586 10588 10590 10592 10593 10594 10595 10596 10596 10596 10597 10598 10599 10600 10600 10601 10601 10601 10601 10602 10602 10601 10599 10598 10597 10596 10595 10594 10594 10593 10592 10591 10588 10587 10587 10587 10586 10585 10583 10581 10580 10579 10577 10574 10572 10570 10568 10567 10566 10564 10562 10561 10559 10558 10555 10554 10552 10550 10548 10546 10545 10543 10542 10541 10539 10538 10538
10571 10573 10575 10577 10578 10578 10578 10578 10579 10578 10578 10578 10579 10579 10579 10579 10579 10579 10580 10583 10585 10587 10588 10588 10589 10590 10591 10591 10592 10593 10594 10595 10595 10596 10596 10596 10596 10598 10597 10595 10593 10592 10591 10590 10590 10589 10588 10587 10586 10584 10581 10579 10580 10580 10579 10577 10575 10574 10572 10571 10569 10566 10564 10562 10560 10559 10557 10556 10554 10552 10551 10550 10548 10546 10544 10542 10541 10539 10537 10536 10535 10533 10531 10530 10529
10567 10568 10570 10571 10572 10572 10573 10573 10573 10572 10571 10571 10573 10573 10573 10574 10575 10575 10576 10578 10579 10580 10581 10582 10583 10584 10585 10586 10588 10588 10588 10589 10589 10589 10589 10589 10590 10591 10590 10588 10587 10586 10584 10584 10583 10582 10582 10580 10579 10576 10574 10572 10573 10573 10571 10569 10567 10565 10564 10563 10559 10556 10555 10554 10553 10551 10550 10549 10548 10546 10544 10543 10542 10539 10537 10534 10533 10532 10530 10529 10526 10524 10523 10521 10518
10561 10563 10564 10564 10565 10566 10566 10567 10568 10566 10565 10566 10567 10567 10568 10569 10571 10571 10572 10573 10573 10575 10576 10576 10577 10578 10579 10581 10582 10581 10582 10582 10582 10582 10582 10582 10582 10582 10582 10580 10579 10578 10577 10576 10575 10575 10574 10573 10571 10569 10567 10565 10565 10564 10563 10562 10560 10558 10556 10555 10551 10547 10546 10547 10546 10545 10544 10543 10542 10541 10539 10537 10535 10533 10530 10527 10524 10522 10521 10519 10515 10511 10511 10509 10505
10555 10556 10557 10558 10559 10560 10561 10562 10562 10561 10560 10561 10562 10562 10563 10564 10565 10566 10567 10567 10568 10570 10570 10571 10571 10571 10573 10574 10574 10574 10574 10575 10575 10574 10574 10573 10573 10572 10572 10570 10569 10568 10568 10567 10567 10567 10566 10565 10564 10562 10560 10558 10557 10557 10556 10554 10553 10552 10551 10550 10547 10543 10541 10540 10539 10538 10537 10536 10535 10534 10532 10530 10527 10524 10521 10517 10514 10511 10509 10507 10502 10498 10497 10495 10491
10549 10550 10551 10552 10553 10554 10554 10555 10555 10555 10555 10556 10558 10558 10558 10559 10560 10561 10562 10563 10564 10564 10565 10565 10566 10566 10566 10567 10567 10567 10567 10567 10566 10566 10566 10565 10564 10563 10562 10561 10561 10560 10560 10560 10561 10560 10559 10557 10556 10555 10554 10553 10551 10550 10550 10548 10547 10547 10546 10545 10543 10539 10536 10534 10532 10530 10528 10526 10524 10522 10521 10518 10516 10513 10509 10505 10501 10498 10495 10492 10488 10485 10483 10481 10478
10543 10544 10545 10545 10546 10547 10547 10548 10549 10550 10551 10553 10554 10555 10555 10556 10556 10557 10557 10557 10558 10559 10559 10560 10560 10560 10560 10560 10560 10560 10560 10560 10560 10559 10559 10558 10558 10557 10556 10556 10556 10555 10555 10555 10556 10555 10552 10550 10549 10549 10549 10548 10546 10544 10543 10541 10540 10539 10538 10537 10535 10532 10529 10526 10524 10521 10518 10516 10513 10510 10508 10505 10503 10500 10496 10492 10488 10484 10480 10477 10473 10471 10469 10467 10464
10537 10538 10539 10540 10542 10542 10543 10544 10545 10545 10547 10549 10550 10550 10551 10552 10552 10553 10552 10552 10553 10553 10554 10554 10554 10554 10553 10553 10553 10553 10553 10554 10554 10554 10554 10553 10553 10553 10552 10552 10551 10551 10550 10550 10550 10550 10547 10543 10542 10542 10541 10541 10539 10537 10535 10533 10530 10529 10528 10526 10524 10521 10518 10516 10513 10510 10507 10504 10502 10498 10495 10493 10490 10487 10484 10481 10477 10473 10468 10464 10460 10459 10456 10454 10452
10531 10533 10534 10535 10536 10537 10538 10539 10539 10540 10541 10542 10543 10544 10545 10546 10546 10547 10547 10547 10548 10548 10548 10548 10548 10548 10548 10548 10548 10548 10548 10548 10548 10548 10547 10546 10546 10546 10546 10545 10545 10545 10544 10543 10543 10542 10539 10536 10534 10533 10532 10531 10530 10528 10526 10522 10519 10517 10515 10514 10512 10509 10506 10503 10499 10497 10494 10492 10489 10486 10483 10481 10478 10475 10473 10470 10466 10463 10458 10451 10447 10446 10444 10441 10438
10525 10526 10528 10528 10529 10530 10531 10532 10533 10533 10534 10535 10535 10536 10537 10538 10539 10540 10540 10541 10541 10541 10542 10542 10542 10542 10542 10542 10541 10542 10542 10541 10541 10540 10539 10538 10538 10538 10538 10538 10537 10537 10536 10535 10533 10532 10529 10526 10525 10524 10522 10521 10519 10516 10514 10511 10508 10505 10503 10501 10498 10496 10493 10489 10485 10483 10480 10478 10477 10475 10472 10469 10466 10463 10461 10459 10456 10454 10451 10443 10438 10435 10431 10427 10424
10518 10520 10521 10522 10522 10523 10524 10524 10525 10525 10526 10527 10527 10528 10529 10531 10532 10532 10533 10533 10534 10534 10534 10534 10535 10535 10534 10534 10534 10534 10534 10534 10532 10530 10529 10530 10531 10530 10529 10528 10527 10527 10527 10526 10524 10521 10519 10517 10516 10515 10513 10511 10508 10505 10503 10499 10496 10494 10491 10489 10485 10482 10479 10476 10472 10470 10468 10465 10464 10462 10459 10456 10454 10451 10448 10445 10444 10442 10440 10437 10432 10427 10421 10415 10412
10510 10512 10513 10514 10515 10516 10517 10517 10517 10518 10518 10519 10520 10521 10522 10523 10524 10524 10525 10525 10526 10526 10527 10527 10527 10527 10526 10526 10526 10526 10527 10525 10521 10519 10520 10522 10522 10521 10520 10518 10517 10517 10517 10515 10512 10510 10509 10508 10506 10505 10503 10501 10498 10495 10492 10489 10486 10483 10480 10477 10473 10469 10466 10463 10460 10458 10455 10453 10451 10447 10444 10440 10439 10438 10435 10432 10429 10427 10424 10423 10420 10416 10410 10405 10402
10502 10504 10505 10506 10507 10507 10508 10509 10509 10510 10510 10511 10512 10513 10514 10514 10515 10516 10516 10517 10518 10518 10518 10519 10519 10519 10519 10518 10518 10519 10519 10515 10509 10509 10513 10514 10513 10511 10510 10508 10507 10506 10506 10504 10501 10499 10498 10496 10494 10493 10492 10489 10487 10483 10480 10477 10475 10472 10468 10464 10460 10458 10455 10452 10449 10446 10443 10440 10437 10433 10430 10427 10424 10424 10422 10418 10414 10411 10409 10407 10403 10398 10396 10393 10390
10494 10495 10497 10498 10498 10499 10500 10500 10501 10501 10502 10503 10504 10505 10505 10505 10506 10506 10507 10508 10509 10509 10510 10510 10510 10511 10510 10509 10509 10511 10510 10505 10501 10500 10502 10504 10503 10502 10501 10498 10496 10495 10494 10492 10490 10487 10486 10484 10482 10481 10479 10477 10474 10470 10467 10465 10462 10458 10455 10451 10448 10446 10443 10440 10437 10434 10429 10426 10423 10420 10417 10414 10410 10409 10407 10403 10398 10396 10396 10394 10388 10383 10379 10377 10374
10485 10486 10488 10489 10490 10491 10491 10492 10493 10493 10494 10494 10495 10496 10496 10496 10497 10497 10498 10499 10499 10500 10500 10501 10501 10501 10500 10499 10501 10502 10499 10496 10494 10492 10491 10491 10491 10491 10490 10487 10485 10483 10482 10480 10478 10476 10474 10472 10469 10467 10465 10463 10460 10458 10455 10451 10448 10444 10442 10440 10437 10434 10431 10428 10426 10422 10417 10414 10411 10407 10404 10402 10398 10396 10394 10390 10384 10381 10380 10378 10373 10369 10364 10360 10356
10477 10478 10479 10480 10481 10482 10483 10484 10484 10485 10485 10486 10486 10487 10488 10488 10488 10488 10488 10489 10489 10490 10490 10491 10491 10491 10490 10490 10491 10491 10489 10487 10486 10484 10482 10480 10479 10478 10476 10475 10473 10471 10469 10467 10466 10464 10461 10458 10456 10453 10451 10449 10447 10445 10442 10439 10436 10433 10430 10429 10426 10424 10421 10418 10415 10411 10406 10402 10399 10395 10391 10388 10384 10381 10379 10376 10370 10365 10362 10358 10355 10351 10348 10343 10340
10468 10469 10470 10471 10472 10473 10474 10475 10475 10476 10476 10477 10477 10478 10478 10478 10479 10479 10479 10479 10479 10480 10480 10480 10480 10480 10480 10480 10480 10480 10479 10478 10477 10475 10472 10470 10468 10466 10464 10462 10460 10458 10456 10454 10452 10450 10448 10445 10443 10442 10440 10438 10435 10433 10431 10428 10426 10423 10419 10416 10414 10411 10409 10405 10401 10398 10394 10388 10384 10381 10377 10373 10370 10366 10362 10359 10354 10349 10345 10341 10337 10333 10330 10326 10323
10459 10460 10461 10462 10463 10464 10465 10466 10466 10467 10467 10468 10468 10469 10469 10469 10469 10469 10469 10469 10469 10470 10470 10470 10470 10469 10469 10469 10468 10468 10468 10467 10465 10463 10461 10459 10457 10455 10453 10451 10449 10447 10444 10442 10440 10438 10436 10434 10432 10431 10429 10426 10423 10420 10418 10416 10414 10410 10407 10403 10400 10397 10394 10390 10385 10382 10378 10372 10367 10364 10361 10357 10353 10348 10344 10341 10337 10333 10328 10324 10320 10316 10312 10309 10306
10449 10450 10451 10453 10454 10455 10456 10456 10457 10458 10459 10459 10459 10459 10460 10460 10460 10459 10459 10460 10460 10459 10459 10459 10459 10458 10457 10457 10457 10456 10455 10454 10452 10451 10449 10447 10445 10443 10441 10439 10437 10435 10432 10431 10428 10426 10423 10421 10420 10418 10416 10413 10410 10407 10404 10402 10399 10396 10392 10388 10385 10382 10379 10375 10370 10366 10361 10355 10351 10348 10344 10340 10335 10331 10327 10323 10319 10316 10311 10307 10303 10299 10296 10293 10290
10439 10440 10441 10443 10444 10445 10446 10447 10448 10449 10450 10450 10450 10449 10450 10450 10450 10450 10450 10449 10449 10449 10448 10448 10447 10447 10447 10446 10445 10444 10443 10442 10440 10439 10437 10436 10434 10432 10430 10428 10425 10423 10421 10419 10417 10414 10411 10409 10407 10405 10402 10400 10397 10394 10391 10388 10384 10381 10377 10373 10370 10367 10364 10361 10357 10351 10344 10339 10335 10332 10328 10323 10319 10314 10310 10306 10302 10298 10294 10290 10287 10284 10281 10278 10276
10429 10430 10431 10433 10434 10435 10437 10438 10438 10439 10440 10440 10440 10439 10439 10440 10440 10439 10439 10439 10438 10438 10437 10437 10436 10436 10436 10435 10433 10432 10431 10429 10428 10427 10425 10424 10422 10420 10418 10416 10413 10411 10409 10408 10406 10402 10399 10397 10395 10392 10389 10386 10383 10380 10377 10373 10370 10366 10362 10358 10354 10351 10347 10344 10341 10336 10328 10322 10319 10316 10312 10308 10303 10299 10294 10290 10287 10283 10279 10275 10273 10270 10268 10265 10262
10420 10420 10421 10422 10423 10424 10426 10427 10428 10428 10429 10429 10429 10429 10429 10429 10429 10428 10428 10427 10427 10427 10426 10426 10425 10425 10424 10423 10422 10420 10419 10417 10416 10415 10413 10411 10409 10407 10405 10403 10401 10399 10397 10395 10393 10390 10386 10384 10382 10379 10376 10372 10368 10365 10361 10358 10354 10351 10347 10342 10338 10333 10330 10327 10323 10319 10313 10307 10303 10299 10296 10292 10288 10284 10280 10277 10273 10269 10265 10262 10260 10257 10255 10253 10250
10409 10411 10412 10413 10413 10413 10414 10415 10416 10417 10418 10418 10418 10418 10418 10417 10417 10417 10417 10416 10415 10415 10415 10414 10414 10413 10412 10411 10410 10408 10407 10406 10404 10403 10401 10399 10397 10395 10393 10391 10388 10386 10384 10382 10380 10377 10374 10371 10368 10365 10361 10358 10354 10350 10346 10342 10338 10334 10331 10326 10321 10316 10313 10310 10306 10302 10297 10293 10288 10284 10280 10277 10274 10270 10267 10264 10261 10258 10254 10251 10248 10245 10243 10242 10239
10398 10400 10401 10402 10402 10402 10403 10404 10404 10404 10405 10406 10406 10406 10406 10406 10406 10405 10405 10404 10404 10403 10403 10402 10401 10400 10399 10398 10397 10396 10394 10394 10392 10390 10388 10386 10384 10382 10380 10378 10376 10373 10371 10368 10366 10364 10360 10357 10354 10350 10347 10343 10340 10336 10332 10328 10323 10319 10315 10311 10306 10301 10297 10294 10290 10286 10282 10279 10275 10271 10267 10264 10261 10257 10254 10252 10250 10247 10244 10240 10237 10235 10233 10231 10229
10387 10388 10389 10390 10391 10391 10391 10392 10392 10392 10393 10393 10393 10393 10393 10393 10393 10393 10393 10392 10392 10392 10391 10390 10389 10388 10387 10386 10385 10383 10382 10381 10379 10377 10375 10374 10372 10370 10368 10366 10363 10360 10358 10355 10352 10350 10347 10343 10340 10336 10333 10329 10325 10322 10318 10313 10309 10305 10300 10296 10291 10287 10283 10279 10276 10272 10269 10265 10262 10259 10256 10253 10249 10246 10243 10241 10239 10237 10234 10230 10227 10225 10224 10222 10220
10375 10376 10377 10378 10379 10379 10379 10380 10380 10380 10381 10381 10380 10380 10380 10380 10380 10380 10380 10380 10379 10379 10380 10379 10377 10376 10375 10374 10372 10371 10370 10368 10366 10365 10363 10361 10359 10357 10355 10353 10350 10347 10345 10342 10339 10336 10333 10330 10327 10323 10319 10316 10312 10308 10304 10300 10295 10291 10286 10282 10278 10273 10269 10265 10262 10259 10256 10253 10250 10247 10244 10242 10239 10236 10233 10230 10229 10227 10224 10221 10218 10217 10215 10213 10211
10363 10364 10365 10365 10366 10367 10367 10367 10368 10368 10368 10368 10368 10368 10368 10368 10368 10367 10367 10367 10367 10367 10367 10367 10365 10364 10363 10361 10360 10359 10357 10355 10353 10352 10350 10348 10346 10344 10342 10339 10337 10335 10332 10329 10326 10323 10320 10317 10313 10310 10306 10302 10299 10295 10291 10287 10282 10278 10273 10269 10265 10261 10257 10253 10250 10247 10244 10241 10238 10236 10233 10231 10228 10226 10223 10220 10218 10217 10214 10212 10209 10208 10206 10204 10202
10351 10352 10352 10353 10354 10354 10355 10355 10355 10355 10355 10356 10355 10355 10355 10355 10355 10355 10355 10355 10355 10354 10354 10353 10352 10351 10350 10349 10348 10347 10345 10343 10341 10339 10337 10335 10333 10331 10329 10326 10324 10321 10319 10316 10313 10310 10306 10303 10300 10296 10293 10290 10286 10282 10278 10274 10270 10266 10262 10258 10254 10250 10247 10243 10240 10237 10234 10231 10228 10226 10223 10221 10218 10216 10214 10211 10209 10207 10205 10203 10201 10199 10197 10195 10194
10339 10339 10340 10341 10341 10342 10342 10343 10343 10343 10343 10343 10343 10343 10342 10342 10343 10343 10342 10342 10342 10341 10341 10340 10339 10338 10337 10336 10335 10334 10332 10330 10328 10326 10324 10322 10320 10318 10316 10313 10311 10308 10305 10302 10299 10296 10293 10290 10287 10283 10280 10277 10274 10271 10267 10262 10258 10254 10251 10247 10244 10241 10238 10235 10231 10228 10225 10222 10219 10216 10214 10212 10209 10207 10205 10203 10200 10198 10196 10194 10193 10191 10189 10187 10185
10326 10326 10327 10328 10329 10330 10330 10330 10331 10331 10331 10331 10331 10331 10330 10330 10330 10330 10330 10329 10329 10328 10328 10327 10326 10325 10324 10323 10322 10320 10319 10317 10315 10313 10311 10309 10307 10305 10303 10300 10298 10295 10292 10290 10287 10284 10281 10278 10275 10271 10269 10266 10262 10259 10255 10251 10247 10243 10240 10236 10233 10231 10228 10226 10223 10220 10217 10214 10211 10208 10206 10204 10201 10199 10197 10194 10192 10189 10188 10186 10184 10183 10181 10179 10178
10312 10313 10314 10315 10316 10317 10317 10317 10318 10318 10319 10319 10319 10318 10318 10318 10318 10317 10317 10317 10316 10315 10315 10314 10313 10312 10311 10310 10309 10307 10306 10304 10302 10301 10299 10297 10295 10293 10290 10288 10286 10283 10280 10278 10275 10272 10269 10266 10263 10261 10258 10255 10251 10248 10244 10241 10237 10234 10230 10227 10224 10221 10219 10217 10214 10212 10209 10206 10203 10201 10198 10196 10193 10191 10188 10186 10184 10181 10179 10178 10177 10175 10173 10171 10170
10299 10300 10301 10302 10303 10304 10304 10304 10304 10305 10305 10306 10306 10306 10306 10306 10305 10304 10304 10304 10303 10303 10302 10302 10301 10300 10299 10297 10296 10295 10293 10292 10290 10288 10287 10285 10283 10281 10279 10277 10274 10272 10269 10267 10264 10261 10258 10256 10253 10250 10248 10245 10241 10238 10234 10231 10228 10225 10222 10219 10216 10213 10211 10208 10206 10203 10200 10197 10195 10192 10190 10188 10186 10183 10181 10178 10176 10174 10172 10170 10169 10168 10166 10164 10162
10286 10288 10289 10290 10290 10291 10292 10292 10292 10292 10292 10292 10293 10293 10293 10293 10292 10292 10291 10291 10291 10291 10290 10289 10288 10288 10286 10285 10284 10283 10281 10280 10278 10277 10275 10273 10272 10270 10268 10265 10263 10261 10258 10256 10253 10250 10248 10245 10243 10241 10239 10236 10232 10228 10225 10222 10219 10217 10214 10212 10209 10207 10205 10202 10198 10195 10193 10190 10187 10184 10182 10180 10178 10176 10174 10171 10169 10167 10165 10164 10162 10160 10159 10158 10156
10274 10275 10276 10277 10278 10278 10279 10279 10279 10279 10279 10279 10280 10280 10280 10280 10280 10280 10279 10279 10279 10279 10278 10277 10276 10275 10274 10273 10272 10271 10270 10268 10267 10266 10264 10262 10261 10259 10257 10255 10252 10250 10247 10245 10243 10240 10238 10235 10234 10232 10229 10226 10223 10220 10216 10213 10211 10208 10206 10203 10201 10200 10198 10196 10192 10189 10186 10183 10180 10177 10175 10173 10171 10169 10167 10165 10163 10161 10159 10157 10155 10154 10152 10151 10149
10262 10263 10264 10265 10265 10265 10266 10266 10266 10267 10267 10267 10267 10267 10268 10268 10268 10268 10268 10268 10267 10267 10266 10265 10264 10263 10262 10261 10260 10259 10258 10257 10256 10254 10253 10252 10250 10248 10246 10244 10242 10240 10238 10235 10233 10231 10228 10226 10225 10223 10220 10217 10214 10211 10208 10205 10203 10200 10197 10195 10193 10191 10190 10188 10185 10182 10178 10176 10173 10170 10168 10166 10164 10162 10160 10158 10157 10155 10153 10151 10149 10148 10146 10144 10143
10250 10251 10252 10252 10253 10253 10253 10253 10254 10254 10254 10255 10255 10256 10256 10256 10256 10256 10256 10256 10255 10255 10254 10253 10252 10252 10251 10250 10249 10248 10247 10246 10245 10244 10242 10241 10239 10238 10236 10234 10232 10230 10228 10226 10224 10222 10219 10218 10216 10214 10211 10209 10206 10203 10200 10198 10195 10192 10190 10188 10186 10184 10182 10180 10177 10174 10171 10168 10166 10164 10161 10159 10157 10155 10154 10152 10150 10148 10147 10145 10143 10142 10140 10139 10137
10240 10240 10240 10240 10241 10241 10242 10242 10242 10242 10243 10244 10244 10244 10245 10244 10244 10244 10244 10244 10244 10243 10242 10242 10241 10240 10240 10239 10238 10237 10236 10235 10234 10233 10232 10231 10229 10228 10226 10225 10223 10221 10219 10217 10215 10213 10211 10209 10207 10205 10202 10200 10198 10196 10193 10190 10188 10185 10183 10181 10179 10177 10174 10172 10170 10168 10165 10162 10159 10157 10155 10153 10151 10149 10147 10145 10144 10142 10140 10139 10137 10136 10135 10134 10132
10229 10229 10229 10229 10229 10230 10231 10231 10231 10231 10232 10233 10233 10233 10233 10233 10233 10233 10233 10232 10232 10232 10231 10231 10230 10230 10229 10228 10228 10227 10226 10225 10224 10223 10222 10221 10220 10219 10217 10216 10214 10212 10210 10209 10207 10204 10203 10201 10199 10197 10194 10192 10190 10188 10186 10184 10181 10178 10176 10174 10172 10170 10168 10165 10162 10160 10158 10156 10153 10150 10148 10147 10145 10143 10142 10140 10138 10136 10134 10133 10131 10130 10129 10128 10127